This is the latest recevied weather packets stored in our database for station/object BARLOW-WX. If no packets are shown the sender has not sent any weather packets the latest 10 day(s).
| Time | Temp. | Humidity | Pressure | Rain* | Wind** | Luminosity | Snow |
|---|---|---|---|---|---|---|---|
| 1777525307 | 5.56° C | 91% | 987 hPa | 0 mm | - | - | - |
| 1777524375 | 5.56° C | 90% | 986.8 hPa | 0 mm | - | - | - |
| 1777523495 | 5.56° C | 92% | 987.2 hPa | 0 mm | - | - | - |
| 1777522575 | 5.56° C | 92% | 987.2 hPa | 1.02 mm | - | - | - |
| 1777521711 | 5.56° C | 92% | 987.2 hPa | 1.02 mm | - | - | - |
| 1777520776 | 5.56° C | 92% | 986.5 hPa | 0.25 mm | - | - | - |
| 1777519894 | 5.56° C | 91% | 986.2 hPa | 0.25 mm | - | - | - |
| 1777518975 | 6.11° C | 91% | 986.3 hPa | 0 mm | - | - | - |
| 1777518107 | 6.11° C | 91% | 986.3 hPa | 0 mm | - | - | - |
| 1777517176 | 6.11° C | 88% | 986.2 hPa | 0 mm | - | - | - |
| 1777516289 | 6.11° C | 89% | 987.1 hPa | 0 mm | - | - | - |
| 1777515375 | 6.67° C | 89% | 987.1 hPa | 0 mm | - | - | - |
| 1777514503 | 6.67° C | 89% | 987.1 hPa | 0 mm | - | - | - |
| 1777513575 | 6.67° C | 91% | 986.2 hPa | 0 mm | - | - | - |
| 1777512689 | 6.67° C | 91% | 986.2 hPa | 0 mm | - | - | - |
| 1777511776 | 6.67° C | 91% | 986.2 hPa | 0.25 mm | - | - | - |
| 1777510901 | 6.67° C | 91% | 986.2 hPa | 0.25 mm | - | - | - |
| 1777509976 | 7.22° C | 88% | 985.8 hPa | 0 mm | - | - | - |
| 1777509090 | 7.78° C | 90% | 986.3 hPa | 0 mm | - | - | - |
| 1777508176 | 7.22° C | 90% | 986.3 hPa | 0 mm | - | - | - |
| 1777507310 | 7.22° C | 90% | 986.3 hPa | 0 mm | - | - | - |
| 1777506379 | 7.78° C | 88% | 985.6 hPa | 0 mm | - | - | - |
| 1777505492 | 7.78° C | 89% | 985.7 hPa | 0 mm | - | - | - |
| 1777504578 | 7.78° C | 89% | 985.7 hPa | 0 mm | - | - | - |
| 1777503700 | 7.78° C | 89% | 985.7 hPa | 0 mm | - | - | - |
* Rain latest hour (hover to see other rain measurements)
** Current wind speed in m/s (hover to see current wind gust speed)